Volver al catálogo

STARLINK-11097

ActivoComunicacionesVLEO
NORAD 59759·PAYLOAD·🇺🇸 United States

Lanzado May 14, 2024 desde Vandenberg Space Force Base

Loading…

Próximos Pases (próximas 24 horas)

TLE

ActualizadoSource: CelesTrak SupGP

Época: Sep 15, 2026, 02:48 UTC

1 59759C 24091G   26258.11715278 -.00011755  00000+0 -96833-4 0  2587
2 59759  53.1564 352.4432 0001021  82.0145 334.8240 15.69713585    13

Sigue STARLINK-11097 en tiempo real con AllMySat

Download on the App Store